Terug naar catalogus

SL-8 R/B

ActiefLEO
NORAD 13992·ROCKET BODY·🇷🇺 Russia

Gelanceerd Apr 12, 1983 vanaf Plesetsk Cosmodrome

Loading…

Volgende Passages (komende 24 uur)

TLE

VersSource: Space-Track

Epoch: Sep 14, 2026, 16:17 UTC

1 13992U 83031B   26257.67878018  .00000099  00000-0  41728-4 0  9990
2 13992  74.0509 289.5903 0004415 165.5985 194.5296 14.37626743273371

Volg SL-8 R/B in realtime met AllMySat

Download on the App Store